IGOLD EGEC-EGPC

Flight info

Callsign IGOLD
Flight time 1h 31m
Altitude 7000
Route CLYDE DCT OBN DCT VP492 DCT INS DCT VP506
Aircraft F260/L-SDGRY/S

Departure

Time 2026-05-01 11:02
Airport Campbeltown Airport (EGEC)

Arrival

Time 2026-05-01 12:34
Airport Wick John O'Groats Airport (EGPC)
Time Latitude Longitude Altitude Speed Heading
2026-05-01 11:00 55.43649 -5.66273 44 ft 0 kts 106°
2026-05-01 11:01 55.43643 -5.66258 44 ft 5 kts 163°
2026-05-01 11:01 55.43570 -5.66234 43 ft 15 kts 176°
2026-05-01 11:01 55.43445 -5.66277 42 ft 20 kts 207°
2026-05-01 11:01 55.43385 -5.66483 41 ft 41 kts 283°
2026-05-01 11:02 55.43515 -5.67338 38 ft 95 kts 287°
2026-05-01 11:02 55.43761 -5.68462 223 ft 98 kts 292°
2026-05-01 11:02 55.43879 -5.69615 441 ft 95 kts 252°
2026-05-01 11:02 55.43460 -5.70313 784 ft 82 kts 172°
2026-05-01 11:03 55.43131 -5.69681 1076 ft 83 kts 105°
2026-05-01 11:03 55.42985 -5.68515 1186 ft 104 kts 104°
2026-05-01 11:03 55.42808 -5.67108 1382 ft 120 kts 103°
2026-05-01 11:03 55.42693 -5.65920 1716 ft 117 kts 101°
2026-05-01 11:04 55.42644 -5.64558 2098 ft 116 kts 96°
2026-05-01 11:04 55.42656 -5.63317 2273 ft 128 kts 91°
2026-05-01 11:05 55.44099 -5.69635 35 ft 0 kts 61°
2026-05-01 11:08 55.43931 -5.69499 33 ft 11 kts 186°
2026-05-01 11:09 55.43849 -5.69383 32 ft 29 kts 109°
2026-05-01 11:09 55.43729 -5.68668 35 ft 87 kts 105°
2026-05-01 11:09 55.43561 -5.67564 182 ft 103 kts 103°
2026-05-01 11:10 55.42986 -5.65329 740 ft 113 kts 153°
2026-05-01 11:10 55.42111 -5.65369 765 ft 147 kts 209°
2026-05-01 11:10 55.41773 -5.67023 1202 ft 146 kts 266°
2026-05-01 11:10 55.41932 -5.68694 1666 ft 143 kts 281°
2026-05-01 11:11 55.42401 -5.70230 2061 ft 146 kts 311°
2026-05-01 11:11 55.43318 -5.70991 2410 ft 147 kts
2026-05-01 11:11 55.44087 -5.70030 2625 ft 146 kts 65°
2026-05-01 11:11 55.44559 -5.68364 2759 ft 156 kts 69°
2026-05-01 11:12 55.45149 -5.66712 2884 ft 169 kts 53°
2026-05-01 11:12 55.45949 -5.65078 2876 ft 179 kts 54°
2026-05-01 11:12 55.46737 -5.63312 2789 ft 188 kts 57°
2026-05-01 11:12 55.47449 -5.61380 2707 ft 188 kts 60°
2026-05-01 11:13 55.48334 -5.59643 2634 ft 191 kts 47°
2026-05-01 11:13 55.49254 -5.57932 2542 ft 192 kts 52°
2026-05-01 11:13 55.50085 -5.56130 2458 ft 191 kts 54°
2026-05-01 11:13 55.50941 -5.54334 2407 ft 190 kts 49°
2026-05-01 11:14 55.51889 -5.52710 2338 ft 190 kts 47°
2026-05-01 11:14 55.52776 -5.50988 2261 ft 188 kts 56°
2026-05-01 11:14 55.53551 -5.49114 2143 ft 189 kts 54°
2026-05-01 11:14 55.54475 -5.47487 2065 ft 191 kts 39°
2026-05-01 11:15 55.55494 -5.46032 2036 ft 186 kts 43°
2026-05-01 11:15 55.56466 -5.44498 1959 ft 186 kts 45°
2026-05-01 11:15 55.57381 -5.42956 2003 ft 180 kts 46°
2026-05-01 11:15 55.58298 -5.41397 1909 ft 185 kts 45°
2026-05-01 11:16 55.59296 -5.40007 1951 ft 181 kts 33°
2026-05-01 11:16 55.60394 -5.38955 1996 ft 179 kts 30°
2026-05-01 11:16 55.61507 -5.37883 1978 ft 181 kts 31°
2026-05-01 11:16 55.62593 -5.36823 1995 ft 179 kts 31°
2026-05-01 11:17 55.63691 -5.35747 2032 ft 178 kts 29°
2026-05-01 11:17 55.64780 -5.34845 2117 ft 177 kts 28°
2026-05-01 11:17 55.65805 -5.33703 2176 ft 172 kts 52°
2026-05-01 11:17 55.66347 -5.31817 2105 ft 173 kts 72°
2026-05-01 11:18 55.66789 -5.29856 2203 ft 170 kts 71°
2026-05-01 11:18 55.67212 -5.27860 2133 ft 175 kts 75°
2026-05-01 11:18 55.67693 -5.25920 2263 ft 170 kts 60°
2026-05-01 11:18 55.68494 -5.24417 2504 ft 165 kts 46°
2026-05-01 11:19 55.69327 -5.22994 2535 ft 173 kts 47°
2026-05-01 11:19 55.70193 -5.21461 2551 ft 175 kts 49°
2026-05-01 11:19 55.71044 -5.19921 2656 ft 174 kts 49°
2026-05-01 11:19 55.71883 -5.18364 2739 ft 174 kts 50°
2026-05-01 11:20 55.72718 -5.16836 2795 ft 177 kts 49°
2026-05-01 11:20 55.73589 -5.15250 2791 ft 180 kts 49°
2026-05-01 11:20 55.74448 -5.13627 2809 ft 182 kts 50°
2026-05-01 11:20 55.75325 -5.11996 2831 ft 182 kts 49°
2026-05-01 11:21 55.76223 -5.10417 2890 ft 182 kts 46°
2026-05-01 11:21 55.77137 -5.08897 3028 ft 177 kts 46°
2026-05-01 11:21 55.78031 -5.07368 3040 ft 181 kts 47°
2026-05-01 11:21 55.78917 -5.05758 3067 ft 181 kts 50°
2026-05-01 11:22 55.79709 -5.04061 3150 ft 178 kts 57°
2026-05-01 11:22 55.80481 -5.02326 3226 ft 179 kts 49°
2026-05-01 11:22 55.81374 -5.00817 3326 ft 179 kts 46°
2026-05-01 11:22 55.82296 -4.99277 3345 ft 183 kts 45°
2026-05-01 11:23 55.83248 -4.97788 3442 ft 182 kts 41°
2026-05-01 11:23 55.84247 -4.96436 3518 ft 182 kts 39°
2026-05-01 11:23 55.85221 -4.94985 3568 ft 182 kts 47°
2026-05-01 11:23 55.86044 -4.93269 3597 ft 183 kts 54°
2026-05-01 11:24 55.86813 -4.91499 3722 ft 178 kts 57°
2026-05-01 11:24 55.87532 -4.89709 3769 ft 181 kts 57°
2026-05-01 11:24 55.89071 -4.86149 3896 ft 181 kts 56°
2026-05-01 11:25 55.89800 -4.84312 3887 ft 185 kts 57°
2026-05-01 11:25 55.91573 -4.80963 3975 ft 184 kts 47°
2026-05-01 11:25 55.92488 -4.79334 3986 ft 187 kts 46°
2026-05-01 11:26 55.93476 -4.77755 3999 ft 189 kts 41°
2026-05-01 11:26 55.95812 -4.75610 4138 ft 187 kts 27°
2026-05-01 11:26 55.96989 -4.75485 4545 ft 167 kts 336°
2026-05-01 11:27 55.98072 -4.76575 4338 ft 186 kts 323°
2026-05-01 11:27 55.99137 -4.77926 4358 ft 186 kts 316°
2026-05-01 11:27 56.00066 -4.79449 4496 ft 180 kts 310°
2026-05-01 11:27 56.00854 -4.81220 4492 ft 182 kts 298°
2026-05-01 11:28 56.01509 -4.83178 4534 ft 181 kts 294°
2026-05-01 11:28 56.02129 -4.85119 4612 ft 180 kts 295°
2026-05-01 11:28 56.02935 -4.86906 4492 ft 193 kts 317°
2026-05-01 11:29 56.05568 -4.88396 4524 ft 188 kts 342°
2026-05-01 11:29 56.06757 -4.89404 4462 ft 192 kts 327°
2026-05-01 11:29 56.08941 -4.91935 4587 ft 188 kts 320°
2026-05-01 11:30 56.10017 -4.93297 4550 ft 191 kts 321°
2026-05-01 11:30 56.11114 -4.94599 4634 ft 187 kts 324°
2026-05-01 11:30 56.12213 -4.95812 4667 ft 188 kts 324°
2026-05-01 11:30 56.13294 -4.97173 4635 ft 190 kts 320°
2026-05-01 11:31 56.14377 -4.98505 4674 ft 189 kts 322°
2026-05-01 11:31 56.15460 -4.99859 4724 ft 187 kts 322°
2026-05-01 11:31 56.16544 -5.01180 4710 ft 189 kts 322°
2026-05-01 11:31 56.17623 -5.02549 4755 ft 188 kts 322°
2026-05-01 11:32 56.18700 -5.03878 4765 ft 189 kts 320°
2026-05-01 11:32 56.19796 -5.05201 4765 ft 190 kts 324°
2026-05-01 11:32 56.20899 -5.06454 4810 ft 188 kts 323°
2026-05-01 11:32 56.22031 -5.07709 4831 ft 189 kts 326°
2026-05-01 11:33 56.23192 -5.08817 4839 ft 190 kts 330°
2026-05-01 11:33 56.24391 -5.09854 4878 ft 189 kts 332°
2026-05-01 11:33 56.25466 -5.11155 4829 ft 190 kts 315°
2026-05-01 11:33 56.26442 -5.12733 4887 ft 186 kts 313°
2026-05-01 11:34 56.27408 -5.14284 4924 ft 186 kts 314°
2026-05-01 11:34 56.28388 -5.15825 4881 ft 189 kts 315°
2026-05-01 11:34 56.29380 -5.17374 4926 ft 187 kts 315°
2026-05-01 11:34 56.30346 -5.18905 4931 ft 188 kts 314°
2026-05-01 11:35 56.31309 -5.20507 4932 ft 188 kts 313°
2026-05-01 11:35 56.32408 -5.21810 4911 ft 193 kts 333°
2026-05-01 11:35 56.33618 -5.22836 4951 ft 190 kts 331°
2026-05-01 11:35 56.34742 -5.23998 5016 ft 186 kts 320°
2026-05-01 11:36 56.35728 -5.25510 4925 ft 191 kts 315°
2026-05-01 11:36 56.36734 -5.27108 4757 ft 198 kts 315°
2026-05-01 11:36 56.37771 -5.28752 4675 ft 198 kts 315°
2026-05-01 11:36 56.38812 -5.30333 4719 ft 192 kts 317°
2026-05-01 11:37 56.39861 -5.31888 4586 ft 197 kts 316°
2026-05-01 11:37 56.40900 -5.33479 4521 ft 196 kts 317°
2026-05-01 11:37 56.41939 -5.35046 4563 ft 192 kts 317°
2026-05-01 11:37 56.42989 -5.36504 4537 ft 193 kts 322°
2026-05-01 11:38 56.44109 -5.37943 4432 ft 197 kts 320°
2026-05-01 11:38 56.45320 -5.39083 4282 ft 205 kts 347°
2026-05-01 11:38 56.46709 -5.38755 4215 ft 201 kts 25°
2026-05-01 11:38 56.47854 -5.37469 4287 ft 193 kts 39°
2026-05-01 11:39 56.48914 -5.35946 4250 ft 193 kts 43°
2026-05-01 11:39 56.49869 -5.34230 4204 ft 192 kts 50°
2026-05-01 11:39 56.50827 -5.32576 4241 ft 190 kts 40°
2026-05-01 11:39 56.51892 -5.31199 4241 ft 190 kts 38°
2026-05-01 11:40 56.52967 -5.29764 4236 ft 191 kts 38°
2026-05-01 11:40 56.54008 -5.28355 4339 ft 185 kts 39°
2026-05-01 11:40 56.55018 -5.26897 4326 ft 188 kts 41°
2026-05-01 11:40 56.56031 -5.25364 4286 ft 190 kts 42°
2026-05-01 11:41 56.57040 -5.23849 4314 ft 189 kts 40°
2026-05-01 11:41 56.58149 -5.22488 4305 ft 191 kts 32°
2026-05-01 11:41 56.59286 -5.21281 4357 ft 188 kts 32°
2026-05-01 11:41 56.60418 -5.20106 4348 ft 190 kts 28°
2026-05-01 11:42 56.61638 -5.19103 4332 ft 192 kts 24°
2026-05-01 11:42 56.62854 -5.18209 4351 ft 190 kts 24°
2026-05-01 11:42 56.64082 -5.17267 4323 ft 192 kts 21°
2026-05-01 11:42 56.65362 -5.16509 4301 ft 193 kts 18°
2026-05-01 11:43 56.66611 -5.15684 4271 ft 192 kts 21°
2026-05-01 11:43 56.67875 -5.14875 4226 ft 193 kts 17°
2026-05-01 11:43 56.69136 -5.14114 4194 ft 193 kts 26°
2026-05-01 11:44 56.71479 -5.11829 4250 ft 187 kts 32°
2026-05-01 11:44 56.72586 -5.10578 4198 ft 190 kts 31°
2026-05-01 11:44 56.73768 -5.09489 4190 ft 189 kts 26°
2026-05-01 11:44 56.74923 -5.08345 4213 ft 188 kts 31°
2026-05-01 11:45 56.76068 -5.07190 4179 ft 189 kts 30°
2026-05-01 11:45 56.77215 -5.06054 4150 ft 189 kts 28°
2026-05-01 11:45 56.78358 -5.04908 4182 ft 187 kts 30°
2026-05-01 11:45 56.79471 -5.03685 4170 ft 187 kts 33°
2026-05-01 11:46 56.80547 -5.02314 4162 ft 187 kts 37°
2026-05-01 11:46 56.81604 -5.00950 4093 ft 189 kts 38°
2026-05-01 11:46 56.82533 -4.99260 4014 ft 188 kts 48°
2026-05-01 11:46 56.83380 -4.97492 4050 ft 184 kts 50°
2026-05-01 11:47 56.84303 -4.95944 4229 ft 175 kts 39°
2026-05-01 11:47 56.85278 -4.94561 4226 ft 181 kts 38°
2026-05-01 11:47 56.86267 -4.93143 4243 ft 183 kts 37°
2026-05-01 11:47 56.87338 -4.91826 4215 ft 187 kts 30°
2026-05-01 11:48 56.88524 -4.90875 4189 ft 189 kts 15°
2026-05-01 11:48 56.89801 -4.90292 4229 ft 186 kts 14°
2026-05-01 11:48 56.91043 -4.89635 4218 ft 188 kts 15°
2026-05-01 11:48 56.92307 -4.88994 4182 ft 189 kts 15°
2026-05-01 11:49 56.93544 -4.88286 4216 ft 187 kts 19°
2026-05-01 11:49 56.94800 -4.87402 4208 ft 187 kts 22°
2026-05-01 11:49 56.96080 -4.86491 4191 ft 187 kts 19°
2026-05-01 11:49 56.97267 -4.85577 4204 ft 186 kts 27°
2026-05-01 11:50 56.98407 -4.84406 4194 ft 187 kts 31°
2026-05-01 11:50 56.99495 -4.83147 4263 ft 183 kts 31°
2026-05-01 11:50 57.00559 -4.81877 4260 ft 185 kts 37°
2026-05-01 11:50 57.01578 -4.80436 4275 ft 184 kts 38°
2026-05-01 11:51 57.02587 -4.78993 4321 ft 183 kts 38°
2026-05-01 11:51 57.03592 -4.77542 4343 ft 184 kts 39°
2026-05-01 11:51 57.04594 -4.76075 4333 ft 186 kts 38°
2026-05-01 11:51 57.05634 -4.74667 4346 ft 186 kts 34°
2026-05-01 11:52 57.06726 -4.73339 4338 ft 187 kts 33°
2026-05-01 11:52 57.07778 -4.71983 4366 ft 186 kts 37°
2026-05-01 11:52 57.08806 -4.70505 4315 ft 189 kts 39°
2026-05-01 11:52 57.09812 -4.68944 4308 ft 188 kts 41°
2026-05-01 11:53 57.10782 -4.67326 4334 ft 186 kts 43°
2026-05-01 11:53 57.11780 -4.65830 4306 ft 188 kts 35°
2026-05-01 11:53 57.12863 -4.64456 4305 ft 188 kts 35°
2026-05-01 11:53 57.13971 -4.63163 4289 ft 189 kts 30°
2026-05-01 11:54 57.15126 -4.61924 4278 ft 189 kts 32°
2026-05-01 11:54 57.16192 -4.60526 4258 ft 189 kts 36°
2026-05-01 11:54 57.17051 -4.58717 4100 ft 193 kts 69°
2026-05-01 11:54 57.17417 -4.56395 4208 ft 182 kts 78°
2026-05-01 11:55 57.17466 -4.56024 4234 ft 181 kts 78°
2026-05-01 11:58 57.17535 -4.55510 4261 ft 179 kts 77°
2026-05-01 11:58 57.18430 -4.51121 4239 ft 183 kts 70°
2026-05-01 11:59 57.18839 -4.48961 4394 ft 175 kts 73°
2026-05-01 11:59 57.19180 -4.46844 4588 ft 170 kts 76°
2026-05-01 11:59 57.19473 -4.44680 4597 ft 176 kts 78°
2026-05-01 12:00 57.19892 -4.40169 4650 ft 178 kts 83°
2026-05-01 12:00 57.20023 -4.37928 4732 ft 177 kts 87°
2026-05-01 12:00 57.20132 -4.33380 4805 ft 180 kts 84°
2026-05-01 12:01 57.20664 -4.31375 5072 ft 171 kts 47°
2026-05-01 12:01 57.21637 -4.29999 4958 ft 185 kts 34°
2026-05-01 12:01 57.22716 -4.28631 4923 ft 188 kts 34°
2026-05-01 12:01 57.23775 -4.27197 4961 ft 187 kts 39°
2026-05-01 12:02 57.24779 -4.25654 4967 ft 187 kts 39°
2026-05-01 12:02 57.25913 -4.24489 5022 ft 186 kts 21°
2026-05-01 12:02 57.27145 -4.23670 4977 ft 190 kts 19°
2026-05-01 12:02 57.28391 -4.22882 4989 ft 189 kts 18°
2026-05-01 12:03 57.29617 -4.22051 4970 ft 190 kts 20°
2026-05-01 12:03 57.30832 -4.21072 5018 ft 187 kts 24°
2026-05-01 12:03 57.32000 -4.20098 5068 ft 186 kts 22°
2026-05-01 12:03 57.33193 -4.19130 5056 ft 188 kts 24°
2026-05-01 12:04 57.34380 -4.18015 5059 ft 189 kts 30°
2026-05-01 12:04 57.35504 -4.16760 5088 ft 188 kts 29°
2026-05-01 12:04 57.36734 -4.15580 5088 ft 189 kts 24°
2026-05-01 12:04 57.37974 -4.14593 5120 ft 187 kts 22°
2026-05-01 12:05 57.39128 -4.13488 5140 ft 188 kts 29°
2026-05-01 12:05 57.41169 -4.10400 5110 ft 189 kts 39°
2026-05-01 12:05 57.42334 -4.09323 5131 ft 188 kts 13°
2026-05-01 12:06 57.43614 -4.08896 5155 ft 187 kts
2026-05-01 12:06 57.44886 -4.08558 5215 ft 185 kts
2026-05-01 12:06 57.46191 -4.08189 5161 ft 189 kts
2026-05-01 12:06 57.47478 -4.07856 5206 ft 187 kts
2026-05-01 12:07 57.48759 -4.07411 5217 ft 188 kts 13°
2026-05-01 12:07 57.50005 -4.06593 5111 ft 194 kts 19°
2026-05-01 12:07 57.51259 -4.05713 5141 ft 190 kts 20°
2026-05-01 12:07 57.52477 -4.04710 5116 ft 191 kts 24°
2026-05-01 12:08 57.53693 -4.03674 5076 ft 192 kts 23°
2026-05-01 12:08 57.54983 -4.03280 4924 ft 195 kts 346°
2026-05-01 12:08 57.56327 -4.03809 4810 ft 196 kts 345°
2026-05-01 12:08 57.57623 -4.04289 4871 ft 188 kts 341°
2026-05-01 12:09 57.58754 -4.05758 4320 ft 207 kts 322°
2026-05-01 12:09 57.59976 -4.06886 4704 ft 179 kts 338°
2026-05-01 12:09 57.61152 -4.07514 4815 ft 179 kts 343°
2026-05-01 12:09 57.62458 -4.07777 4551 ft 196 kts 359°
2026-05-01 12:10 57.63791 -4.07545 4518 ft 194 kts 16°
2026-05-01 12:10 57.65808 -4.04074 4242 ft 195 kts 51°
2026-05-01 12:10 57.66687 -4.02242 4283 ft 190 kts 46°
2026-05-01 12:11 57.68660 -3.98913 4194 ft 195 kts 40°
2026-05-01 12:11 57.69602 -3.97054 3989 ft 200 kts 53°
2026-05-01 12:11 57.70410 -3.95009 3974 ft 195 kts 52°
2026-05-01 12:12 57.71236 -3.93056 4047 ft 188 kts 51°
2026-05-01 12:12 57.72093 -3.91044 4104 ft 186 kts 52°
2026-05-01 12:12 57.72710 -3.89654 4112 ft 187 kts 48°
2026-05-01 12:12 57.74009 -3.87226 4097 ft 189 kts 43°
2026-05-01 12:13 57.74968 -3.85600 4125 ft 188 kts 41°
2026-05-01 12:13 57.75991 -3.84052 4086 ft 191 kts 35°
2026-05-01 12:13 57.77135 -3.82796 4101 ft 189 kts 23°
2026-05-01 12:13 57.78374 -3.82034 4116 ft 188 kts 13°
2026-05-01 12:14 57.79661 -3.81447 3970 ft 196 kts 11°
2026-05-01 12:14 57.81018 -3.80893 3712 ft 203 kts 11°
2026-05-01 12:14 57.82418 -3.80321 3435 ft 208 kts 11°
2026-05-01 12:14 57.83830 -3.79726 3130 ft 210 kts 11°
2026-05-01 12:15 57.85249 -3.79122 2750 ft 214 kts 15°
2026-05-01 12:15 57.86595 -3.78023 2558 ft 206 kts 25°
2026-05-01 12:15 57.87884 -3.76798 2139 ft 212 kts 27°
2026-05-01 12:15 57.89181 -3.75505 1887 ft 205 kts 29°
2026-05-01 12:16 57.90373 -3.74186 1631 ft 203 kts 32°
2026-05-01 12:16 57.91587 -3.72744 1302 ft 207 kts 32°
2026-05-01 12:16 57.92788 -3.71326 1170 ft 201 kts 31°
2026-05-01 12:16 57.93984 -3.70010 1011 ft 199 kts 30°
2026-05-01 12:17 57.95130 -3.68569 776 ft 200 kts 35°
2026-05-01 12:17 57.96236 -3.67102 740 ft 192 kts 36°
2026-05-01 12:17 57.97279 -3.65599 774 ft 185 kts 38°
2026-05-01 12:17 57.98267 -3.64123 841 ft 181 kts 39°
2026-05-01 12:18 57.99263 -3.62624 834 ft 183 kts 33°
2026-05-01 12:18 58.00371 -3.61476 836 ft 183 kts 27°
2026-05-01 12:18 58.01498 -3.60448 950 ft 179 kts 24°
2026-05-01 12:18 58.02649 -3.59499 961 ft 182 kts 23°
2026-05-01 12:19 58.03806 -3.58532 976 ft 182 kts 22°
2026-05-01 12:19 58.04984 -3.57635 1049 ft 181 kts 19°
2026-05-01 12:19 58.06140 -3.56791 1123 ft 180 kts 21°
2026-05-01 12:19 58.07295 -3.56008 1317 ft 174 kts 18°
2026-05-01 12:20 58.08455 -3.55292 1419 ft 176 kts 18°
2026-05-01 12:20 58.09600 -3.54453 1458 ft 179 kts 23°
2026-05-01 12:20 58.10728 -3.53429 1569 ft 178 kts 25°
2026-05-01 12:20 58.11822 -3.52417 1758 ft 173 kts 25°
2026-05-01 12:21 58.12898 -3.51454 1980 ft 170 kts 23°
2026-05-01 12:21 58.13958 -3.50552 2306 ft 161 kts 25°
2026-05-01 12:21 58.14950 -3.49558 2533 ft 161 kts 29°
2026-05-01 12:21 58.15896 -3.48257 2584 ft 170 kts 38°
2026-05-01 12:22 58.16809 -3.46842 2708 ft 173 kts 38°
2026-05-01 12:22 58.17740 -3.45376 2725 ft 179 kts 39°
2026-05-01 12:22 58.18690 -3.43817 2773 ft 181 kts 40°
2026-05-01 12:22 58.19628 -3.42241 2840 ft 182 kts 41°
2026-05-01 12:23 58.20552 -3.40621 2935 ft 181 kts 41°
2026-05-01 12:23 58.21443 -3.38886 2887 ft 186 kts 46°
2026-05-01 12:23 58.22301 -3.37062 2985 ft 183 kts 48°
2026-05-01 12:23 58.23115 -3.35250 3085 ft 181 kts 49°
2026-05-01 12:24 58.23923 -3.33398 3203 ft 179 kts 50°
2026-05-01 12:24 58.24677 -3.31529 3216 ft 183 kts 52°
2026-05-01 12:24 58.25453 -3.29598 3250 ft 184 kts 53°
2026-05-01 12:24 58.26198 -3.27631 3335 ft 182 kts 54°
2026-05-01 12:25 58.26951 -3.25709 3427 ft 180 kts 52°
2026-05-01 12:25 58.28757 -3.22414 3463 ft 186 kts 27°
2026-05-01 12:25 58.29899 -3.21299 3537 ft 183 kts 24°
2026-05-01 12:26 58.31033 -3.20204 3618 ft 181 kts 26°
2026-05-01 12:26 58.33342 -3.18448 3790 ft 179 kts 17°
2026-05-01 12:26 58.34528 -3.17701 3828 ft 181 kts 15°
2026-05-01 12:27 58.35723 -3.16854 3829 ft 184 kts 21°
2026-05-01 12:27 58.38090 -3.15153 3936 ft 182 kts 17°
2026-05-01 12:28 58.40355 -3.12924 4000 ft 180 kts 33°
2026-05-01 12:28 58.41359 -3.11568 3977 ft 173 kts 34°
2026-05-01 12:28 58.43456 -3.09136 3417 ft 164 kts 41°
2026-05-01 12:29 58.44259 -3.07736 3433 ft 151 kts 43°
2026-05-01 12:29 58.44991 -3.06401 3422 ft 146 kts 43°
2026-05-01 12:29 58.45535 -3.05288 3251 ft 153 kts 49°
2026-05-01 12:30 58.46891 -3.03653 2076 ft 169 kts 350°
2026-05-01 12:30 58.47490 -3.04806 2243 ft 119 kts 267°
2026-05-01 12:30 58.47060 -3.05998 1998 ft 109 kts 207°
2026-05-01 12:31 58.46396 -3.06645 1738 ft 109 kts 209°
2026-05-01 12:31 58.45738 -3.07368 1501 ft 106 kts 211°
2026-05-01 12:31 58.45148 -3.08243 1205 ft 108 kts 223°
2026-05-01 12:31 58.44989 -3.09456 1066 ft 101 kts 289°
2026-05-01 12:32 58.45280 -3.10647 852 ft 86 kts 300°
2026-05-01 12:32 58.45909 -3.12455 657 ft 82 kts 296°
2026-05-01 12:32 58.46241 -3.13447 694 ft 94 kts 303°
2026-05-01 12:33 58.46805 -3.13963 827 ft 92 kts 12°
2026-05-01 12:33 58.47213 -3.13139 802 ft 92 kts 80°
2026-05-01 12:33 58.47008 -3.12123 468 ft 82 kts 136°
2026-05-01 12:33 58.46660 -3.11328 270 ft 80 kts 125°
2026-05-01 12:34 58.46341 -3.10474 165 ft 79 kts 127°
2026-05-01 12:34 58.46008 -3.09648 122 ft 72 kts 129°
2026-05-01 12:34 58.45768 -3.09059 122 ft 43 kts 118°
2026-05-01 12:34 58.45636 -3.08682 120 ft 22 kts 129°
2026-05-01 12:35 58.45565 -3.08615 119 ft 8 kts 217°
2026-05-01 12:35 58.45522 -3.08719 119 ft 11 kts 223°
2026-05-01 12:35 58.45470 -3.08791 119 ft 8 kts 191°
2026-05-01 12:35 58.45406 -3.08766 119 ft 9 kts 202°
2026-05-01 12:36 58.45380 -3.08810 119 ft 6 kts 254°
2026-05-01 12:36 58.45396 -3.08844 119 ft 1 kts 14°
2026-05-01 12:36 58.45397 -3.08829 119 ft 0 kts 125°